Waynesville-St. Robert Regional Forney field
KTBN : now visible

Airfield :











YOU CAN JOIN US ON...

 
LOGIN :

Register | Disclaimer

   EN    FR    IT 

 









Legend :    VFR   Marginal VFR   IFR   Intensive IFR   Very Intensive IFR
Visi :
Ceiling :
>= 8 km
>= 3000ft
5 to 8 km
1000 to 3000 ft
1500m to 5 km
500 to 1000 ft
800 to 1500m
200 to 500 ft
< 800m
< 200 ft
Symbols :   Thunderstorms  Fog  Heavy snow  Heavy precipitations  Wind > 20 kt






- Airport Elevation : 1159 ft
- IATA code : TBN


KTBN - Waynesville-St. Robert Regional Forney field

CURRENT METAR :
  • 222156Z AUTO 00000KT 10SM SCT065 26/11 A3002 RMK AO2 SLP163 T02590109

EXPIRED METARs :
  • 222056Z AUTO 00000KT 10SM CLR 26/11 A3002 RMK AO2 SLP163 T02590109 57013
  • 221956Z AUTO 00000KT 10SM BKN060 26/11 A3004 RMK AO2 SLP169 T02610107

TAF N/A
KZKC FIR / North America



MET'MAP, your aeronautical weather chart ! - Copyright ORBIFLY December 2007 - Disclaimer

ORBIFLY MET'MAP TEAM :

Programming & Development : Alexandra Zaïnal
Concept & original design : Baudouin d'Aumeries
Assistance for programming : Marc-Olivier Méhu
Technical & hardware support : Manuel Goepfert

Contact : metmap@orbifly.com




SOURCES & CREDITS :

   NOAA       Earth
Advisory